, FL

(GMT )
Bonifay

Weather History for K1J0 - August, 2019

Change the Weather History Date:

Saturday, August 3, 2019

  Actual Average Record
Temperature  
Mean Temperature 82 °F -  
Max Temperature 91 °F - - ()
Min Temperature 72 °F - - ()
Cooling Degree Days 16    
Growing Degree Days 32 (Base 50)    
Moisture  
Dew Point 72 °F    
Average Humidity 83    
Maximum Humidity 97    
Minimum Humidity 52    
Precipitation  
Precipitation 0.22 in - - ()
Sea Level Pressure  
Sea Level Pressure 29.86 in    
Wind  
Wind Speed 1 mph (NNE)    
Max Wind Speed 13 mph    
Max Gust Speed 23 mph    
Visibility 9 miles    
Events Fog , Rain , Thunderstorm    
T = Trace of Precipitation, MM = Missing Value Source: NWS Daily Summary

Daily Weather History Graph

Daily Weather History Graph

Search for Another Location

Airport or City:

Astronomy

Aug. 03, 2019 Rise Set
Actual Time 7:01 AM EDT 8:35 PM EDT
Civil Twilight 6:34 AM EDT 9:01 PM EDT
Nautical Twilight 6:03 AM EDT 9:33 PM EDT
Astronomical Twilight 5:30 AM EDT 10:05 PM EDT
Moon 9:44 AM EDT (8/3) 10:52 PM EDT (8/3)
Length of Visible Light 14h 26m
Length of Day
13h 34m
Waxing Crescent, 10% of the Moon is Illuminated
Aug 3
Waxing Crescent
Aug 7
First Quarter
Aug 15
Full
Aug 23
Last Quarter
Aug 30
New

Hourly Weather History & Observations

Time (EDT) Temp. Heat Index Dew Point Humidity Pressure Visibility Wind Dir Wind Speed Gust Speed Precip Events Conditions
12:38 AM 73.9 °F - 73.0 °F 97% 29.97 in 10.0 mi Calm Calm - N/A   Partly Cloudy
12:58 AM 73.9 °F - 72.0 °F 93% 29.85 in 10.0 mi Calm Calm - N/A   Partly Cloudy
1:58 AM 73.9 °F - 72.0 °F 93% 29.85 in 10.0 mi Calm Calm - N/A   Clear
2:58 AM 73.0 °F - 72.0 °F 96% 29.85 in 9.0 mi Calm Calm - N/A   Scattered Clouds
3:58 AM 72.0 °F - 71.1 °F 97% 29.83 in 7.0 mi Calm Calm - N/A   Partly Cloudy
4:58 AM 73.0 °F - 71.1 °F 93% 29.83 in 7.0 mi Calm Calm - N/A   Partly Cloudy
5:58 AM 72.0 °F - 70.0 °F 93% 29.83 in 9.0 mi Calm Calm - N/A   Clear
6:58 AM 72.0 °F - 70.0 °F 93% 29.83 in 8.0 mi Calm Calm - N/A   Clear
7:58 AM 73.9 °F - 71.1 °F 91% 29.85 in 10.0 mi Calm Calm - N/A   Clear
8:58 AM 78.1 °F - 72.0 °F 81% 29.86 in 10.0 mi Calm Calm - N/A   Clear
9:58 AM 82.0 °F 87.9 °F 73.9 °F 76% 29.87 in 10.0 mi Calm Calm - N/A   Clear
11:58 AM 87.1 °F 93.6 °F 72.0 °F 61% 29.87 in 10.0 mi NNE 4.6 mph - N/A   Clear
12:58 PM 88.0 °F 96.5 °F 73.9 °F 63% 29.86 in 10.0 mi East 3.5 mph - N/A   Clear
1:58 PM 91.0 °F 99.3 °F 73.0 °F 55% 29.83 in 10.0 mi NNE 6.9 mph - N/A   Clear
2:58 PM 91.0 °F 97.6 °F 71.1 °F 52% 29.80 in 10.0 mi Variable 3.5 mph - N/A   Clear
3:58 PM 88.0 °F 94.7 °F 72.0 °F 59% 29.78 in 10.0 mi Calm Calm - N/A   Scattered Clouds
4:09 PM 88.0 °F 93.8 °F 71.1 °F 57% 29.90 in 10.0 mi Calm Calm - N/A Thunderstorm Thunderstorm
4:44 PM 75.0 °F - 71.1 °F 87% 29.97 in 1.5 mi WSW 12.7 mph 23.0 mph 0.09 in Rain , Thunderstorm Heavy Thunderstorms and Rain
5:05 PM 73.0 °F - 72.0 °F 96% 29.97 in 0.2 mi NW 5.8 mph - 0.17 in Fog , Rain , Thunderstorm Heavy Thunderstorms and Rain
5:26 PM 73.0 °F - 71.1 °F 93% 29.96 in 5.0 mi NNW 8.1 mph - 0.22 in Rain , Thunderstorm Light Thunderstorms and Rain
5:58 PM 75.0 °F - 73.0 °F 94% 29.85 in 10.0 mi Variable 3.5 mph - 0.22 in   Mostly Cloudy
6:58 PM 80.1 °F 83.8 °F 72.0 °F 76% 29.83 in 10.0 mi Variable 4.6 mph - N/A   Clear
7:58 PM 78.1 °F - 72.0 °F 81% 29.85 in 10.0 mi Calm Calm - N/A   Clear
8:58 PM 75.0 °F - 73.0 °F 94% 29.85 in 10.0 mi ESE 3.5 mph - N/A   Clear
9:58 PM 73.9 °F - 72.0 °F 93% 29.85 in 10.0 mi Calm Calm - N/A   Clear
10:58 PM 73.0 °F - 71.1 °F 93% 29.86 in 10.0 mi Calm Calm - N/A   Clear
11:58 PM 72.0 °F - 71.1 °F 97% 29.86 in 10.0 mi Calm Calm - N/A   Clear